Lid_Strength_Index
1 1 1 1 1 1 1 0 0 0 0 0 0 0 -0 -0 0 4 8 5 4 -2 2 6 6 7 7 7 8 9 12 14 13 13 12 10 10 9 9 9 9 8 8 8 8
1 1 1 1 1 1 1 1 1 1 1 1 1 0 0 0 4 7 3 -0 -3 -1 7 7 8 8 9 8 8 10 13 13 11 12 11 10 10 9 10 9 9 9 8 9 8
1 1 1 1 1 1 0 0 1 1 1 1 1 1 0 2 9 10 -1 -1 -3 1 7 8 8 8 10 9 9 11 12 11 11 11 10 10 11 9 10 10 9 9 8 9 9
1 1 1 1 1 1 0 0 0 1 1 1 1 1 0 5 13 9 -2 -2 -2 6 7 8 8 10 11 11 10 12 11 11 10 10 10 11 10 11 10 7 7 8 8 9 9
1 1 1 1 1 1 0 0 0 0 1 1 1 1 5 11 9 2 -1 -1 6 7 8 9 10 11 12 12 12 12 11 11 10 10 11 11 10 11 11 8 8 9 9 9 9
1 1 1 1 1 1 1 0 0 0 1 1 1 1 10 13 7 2 3 6 7 8 9 9 10 10 12 12 12 12 12 12 11 11 11 11 11 11 10 9 9 10 9 10 10
1 1 1 1 1 1 0 0 0 0 1 1 1 3 10 11 6 5 6 7 7 8 9 9 10 10 11 13 11 12 13 13 13 13 12 12 13 13 10 11 10 10 10 10 10
2 2 2 2 1 1 1 0 1 1 1 1 1 6 12 7 6 6 8 8 7 8 9 9 9 10 11 11 13 15 15 16 14 13 13 12 15 12 12 12 11 11 11 11 10
2 2 2 2 2 2 1 1 2 1 1 1 7 11 12 5 9 8 8 9 9 9 8 8 9 12 12 15 16 16 18 18 16 13 14 13 15 12 12 13 12 11 10 10 10
2 2 2 2 2 2 2 3 3 4 3 3 6 13 11 11 9 9 10 9 10 10 11 11 13 15 16 16 19 18 19 18 18 14 16 16 15 13 11 13 12 11 11 10 10
2 2 1 1 1 1 5 9 9 10 10 11 11 12 11 10 9 10 9 10 10 12 14 13 16 16 14 15 15 17 18 18 17 14 16 15 15 14 13 13 12 12 11 11 10
1 2 2 2 2 2 8 11 12 12 14 10 10 10 10 9 11 10 9 11 12 14 14 15 17 14 14 15 15 16 17 17 16 15 16 16 16 14 13 13 12 12 11 11 11
2 2 2 3 3 6 10 11 9 10 15 12 11 11 11 10 12 11 10 12 14 16 15 16 15 14 15 16 16 17 17 17 17 16 16 17 17 16 14 14 12 12 11 11 11
2 2 2 3 5 8 10 9 9 11 16 14 15 13 11 11 14 11 11 12 15 15 16 16 14 15 16 16 16 18 15 16 17 18 20 16 20 18 15 14 14 12 12 12 11
3 3 2 2 6 6 8 9 10 12 20 14 15 11 11 13 14 13 12 13 16 16 16 16 16 17 16 15 15 16 15 16 17 18 19 19 20 18 16 16 14 13 12 12 11
4 3 3 4 5 5 6 8 9 14 19 15 15 15 15 14 14 13 14 13 14 16 16 16 15 15 15 15 15 15 16 17 18 19 22 19 19 16 17 16 15 13 12 11 10
5 4 3 3 5 5 5 6 13 18 12 15 17 15 16 16 15 15 15 16 16 18 18 17 16 15 15 16 15 15 17 20 21 22 20 18 20 16 15 14 12 12 12 11 11
5 4 3 3 4 4 4 9 17 13 13 12 13 14 15 13 13 15 17 17 16 16 18 18 17 16 14 14 15 16 15 18 21 20 18 19 21 16 13 13 12 12 12 12 11
5 4 4 3 4 4 7 14 15 13 11 11 11 13 15 15 13 15 17 17 15 14 15 17 17 16 15 15 14 17 17 14 16 18 19 17 17 14 13 13 13 12 12 11 11
8 8 8 4 3 5 10 13 12 10 11 11 14 13 16 14 15 15 15 15 15 14 12 13 16 14 15 15 15 14 13 17 17 20 21 17 17 17 14 13 11 11 12 12 12
9 12 9 4 4 8 14 14 11 9 9 10 12 12 12 14 13 13 14 13 13 14 13 13 13 15 14 15 14 14 15 15 15 15 19 20 16 12 12 12 12 13 12 13 13
9 13 7 3 10 11 13 11 9 10 9 9 9 10 12 12 12 13 13 11 10 10 12 10 13 16 15 13 12 12 13 13 16 17 15 16 16 9 10 9 10 12 12 12 12
9 10 5 2 12 11 10 9 8 9 9 9 10 9 9 11 13 11 11 8 8 9 11 10 14 17 16 14 13 13 12 12 13 14 17 19 17 10 10 10 10 13 13 13 13
11 14 10 6 7 9 10 10 10 8 8 8 9 8 10 11 10 12 12 9 8 8 7 8 13 15 18 15 13 15 13 14 14 17 16 16 15 12 11 13 14 13 14 14 14
11 13 11 12 11 10 10 11 12 12 8 9 9 10 11 13 12 12 10 11 10 10 11 10 14 13 13 13 14 14 15 15 16 15 17 16 15 13 14 14 13 12 13 14 14
13 13 10 12 11 12 11 12 12 12 11 11 11 12 12 12 13 15 14 13 13 13 13 12 16 15 18 14 14 15 15 15 15 15 16 15 16 13 12 12 13 13 13 14 14
11 10 12 14 13 13 13 12 14 12 12 11 13 13 14 12 11 11 11 11 12 13 15 14 15 18 19 15 17 21 18 16 15 16 16 17 16 14 14 13 13 13 13 11 13